Location: Greene
(44.1583°N, 70.1456°W)
Time: 01:12:39
(UTC-05:00)

Amateur Radio Satellites - All Passes

Search period start: 18 November 2017 00:42
Search period end: 19 November 2017 00:42
Location: Greene, 44.1583°N, 70.1456°W

Satellite Date Start Highest point End Downlink Frequencies (MHz)
Time Altitude Azimuth
DX 1 18 Nov 00:48:26 00:52:44 60° 259° (WSW) 00:57:05 434.975-435.025
DUCHIFAT 1 18 Nov 00:50:10 00:53:40 26° 293° (WNW) 00:57:08 145.980
ISS 18 Nov 00:50:27 00:53:04 22° 356° (N) 00:55:41 437.550
EO-79 18 Nov 00:52:56 00:56:02 20° 295° (WNW) 00:59:07 145.935-145.965
RS-15 18 Nov 00:57:47 01:08:15 32° 19° (NNE) 01:18:16 29.354- 29.394
NANOSAT C BR1 18 Nov 00:58:52 01:01:54 20° 295° (WNW) 01:04:55 145.865
BEESAT 18 Nov 01:06:28 01:10:05 22° 63° (ENE) 01:13:42 436.000
POLYITAN 1 18 Nov 01:07:44 01:10:08 15° 297° (WNW) 01:12:30 437.675
ITUPSAT 1 18 Nov 01:13:15 01:17:06 25° 64° (ENE) 01:20:57 437.325
AO-7 18 Nov 01:29:40 01:33:32 14° 86° (E) 01:37:23 .
UKube-1 18 Nov 01:39:27 01:43:10 28° 264° (W) 01:46:54 .
Gurwin Techsat 1B 18 Nov 01:39:56 01:45:18 83° 104° (ESE) 01:50:38 435.225
Oscar 19 18 Nov 01:45:16 01:50:22 64° 288° (WNW) 01:55:28 437.125/150
PCSat 18 Nov 01:48:17 01:53:20 39° 310° (NW) 01:58:25 145.827
nSIGHT-1 18 Nov 01:55:28 01:58:10 24° 12° (NNE) 02:00:52 .
BUGSAT 1 18 Nov 01:58:21 02:01:16 19° 295° (WNW) 02:04:08 437.445
MOZHAYETS 4 18 Nov 02:00:59 02:05:33 84° 76° (ENE) 02:10:09
M-CUBED/EXP-1 PRIME 18 Nov 02:02:57 02:07:07 38° 103° (ESE) 02:11:26 437.505
CUBESAT XI-V 18 Nov 02:03:36 02:07:08 22° 65° (ENE) 02:10:42 437.345
BEESAT 3 18 Nov 02:25:50 02:28:46 20° 113° (ESE) 02:31:44 437.485
ISS 18 Nov 02:27:18 02:30:14 29° 16° (NNE) 02:33:09 437.550
BEESAT 18 Nov 02:42:57 02:47:32 46° 261° (W) 02:52:09 436.000
KKS-1 18 Nov 02:45:32 02:48:14 16° 61° (ENE) 02:50:55 437.445
ITUPSAT 1 18 Nov 02:50:11 02:54:41 41° 262° (W) 02:59:13 437.325
RS-15 18 Nov 03:11:26 03:23:26 69° 49° (NE) 03:34:42 29.354- 29.394
AO-7 18 Nov 03:19:22 03:27:44 71° 106° (ESE) 03:36:04 .
STARS 18 Nov 03:20:41 03:23:10 15° 61° (ENE) 03:25:40 437.465
Gurwin Techsat 1B 18 Nov 03:21:30 03:24:33 16° 302° (WNW) 03:27:35 435.225
BEESAT 2 18 Nov 03:27:42 03:31:03 26° 114° (ESE) 03:34:27 435.950
ITAMSAT 1 18 Nov 03:29:24 03:34:38 74° 103° (ESE) 03:39:49 435.822/435.867
nSIGHT-1 18 Nov 03:31:33 03:34:46 82° 31° (NNE) 03:37:57 .
PCSat 18 Nov 03:37:30 03:38:20 10° 333° (NNW) 03:39:10 145.827
M-CUBED/EXP-1 PRIME 18 Nov 03:37:38 03:41:19 26° 298° (WNW) 03:45:07 437.505
CUBESAT XI-V 18 Nov 03:39:55 03:44:14 41° 262° (W) 03:48:37 437.345
MOZHAYETS 4 18 Nov 03:42:54 03:43:18 10° 273° (W) 03:43:42
AO-85 18 Nov 03:54:24 03:57:11 19° 112° (ESE) 04:00:03 145.980
DOVE 4 18 Nov 04:00:08 04:04:42 29° 93° (E) 04:09:05 437.250
BEESAT 3 18 Nov 04:02:13 04:06:02 42° 310° (NW) 04:09:52 437.485
ISS 18 Nov 04:03:40 04:06:54 64° 216° (SW) 04:10:07 437.550
KKS-1 18 Nov 04:19:52 04:24:17 60° 258° (WSW) 04:28:45 437.445
CUTE-I 18 Nov 04:37:27 04:39:26 12° 87° (E) 04:41:23 437.470
STRAND 1 18 Nov 04:45:16 04:48:05 15° 58° (ENE) 04:50:54 437.568
STARS 18 Nov 04:54:35 04:59:00 63° 259° (W) 05:03:25 437.465
YUBILEINY 18 Nov 04:58:18 05:06:35 50° 89° (E) 05:14:58 435.215
BEESAT 2 18 Nov 05:04:58 05:08:40 34° 313° (NW) 05:12:23 435.950
KAITUO 1B 18 Nov 05:08:02 05:10:36 17° 93° (E) 05:13:11 145.475/437.950
nSIGHT-1 18 Nov 05:08:55 05:10:35 13° 228° (SW) 05:12:14 .
FO-29 18 Nov 05:09:39 05:11:09 11° 45° (NE) 05:12:40 435.910
ITAMSAT 1 18 Nov 05:10:15 05:13:29 17° 301° (WNW) 05:16:43 435.822/435.867
XW-2D 18 Nov 05:12:53 05:16:12 28° 96° (E) 05:19:30 145.860 - 145.880
AO-7 18 Nov 05:12:56 05:19:52 31° 306° (NW) 05:26:50 .
HO-68 18 Nov 05:17:35 05:21:30 15° 87° (E) 05:25:23 435.675
RS-15 18 Nov 05:24:44 05:35:05 39° 254° (WSW) 05:45:00 29.354- 29.394
SO-50 18 Nov 05:25:21 05:28:50 21° 39° (NE) 05:32:22 436.795
XW-2B 18 Nov 05:27:22 05:30:57 40° 98° (E) 05:34:34 145.730 - 145.750
AO-85 18 Nov 05:33:32 05:37:15 41° 311° (NW) 05:41:08 145.980
DOVE 4 18 Nov 05:37:34 05:42:24 38° 292° (WNW) 05:47:04 437.250
LilacSat-2 18 Nov 05:49:58 05:53:49 85° 103° (ESE) 05:57:39 437.200
XW-2C 18 Nov 05:52:35 05:56:24 85° 102° (ESE) 06:00:12 145.795 - 145.815
NUDT-PHONESAT 18 Nov 05:58:12 06:01:53 67° 101° (ESE) 06:05:34 437.300
XW-2F 18 Nov 06:06:46 06:10:32 69° 285° (WNW) 06:14:18 145.980 - 146.000
CUTE 1.7 + AOD 2 18 Nov 06:11:40 06:15:29 31° 96° (E) 06:19:17 437.475
CUTE-I 18 Nov 06:14:47 06:20:12 89° 104° (ESE) 06:25:34 437.470
STRAND 1 18 Nov 06:21:25 06:26:34 82° 256° (WSW) 06:31:46 437.568
CUBEBUG 2 18 Nov 06:30:45 06:34:24 28° 95° (E) 06:37:59 437.445
KAITUO 1B 18 Nov 06:41:15 06:44:40 34° 289° (WNW) 06:48:05 145.475/437.950
XW-2A 18 Nov 06:43:41 06:46:03 18° 94° (E) 06:48:24 145.665 - 145.685
XW-2D 18 Nov 06:47:16 06:50:13 22° 292° (WNW) 06:53:10 145.860 - 145.880
FO-29 18 Nov 06:48:03 06:54:16 49° 66° (ENE) 07:01:16 435.910
SEEDS 18 Nov 06:49:01 06:53:09 49° 99° (E) 06:57:16 437.485
AO-73 18 Nov 06:52:03 06:53:53 13° 90° (E) 06:55:42 145.935
YUBILEINY 18 Nov 06:55:34 07:03:35 39° 290° (WNW) 07:11:43 435.215
XW-2B 18 Nov 07:02:26 07:04:49 16° 295° (WNW) 07:07:14 145.730 - 145.750
HO-68 18 Nov 07:03:00 07:10:15 83° 105° (ESE) 07:17:27 435.675
SO-50 18 Nov 07:05:08 07:09:45 69° 238° (WSW) 07:14:25 436.795
AAUSAT CUBESAT 2 18 Nov 07:06:58 07:10:47 33° 96° (E) 07:14:35 437.432
PCSat 18 Nov 07:09:51 07:11:09 11° 28° (NNE) 07:12:27 145.827
Oscar 11 18 Nov 07:12:03 07:14:35 15° 91° (E) 07:17:06 .
ZACube-1 18 Nov 07:33:15 07:37:10 40° 98° (E) 07:41:04 437.345
UWE-3 18 Nov 07:34:46 07:38:57 83° 102° (ESE) 07:43:05 435.000/436.395/437.385
NUDT-PHONESAT 18 Nov 07:34:53 07:35:11 10° 298° (WNW) 07:35:29 437.300
CUTE 1.7 + AOD 2 18 Nov 07:47:42 07:51:11 25° 293° (WNW) 07:54:41 437.475
CUTE-I 18 Nov 07:56:39 07:59:29 15° 303° (WNW) 08:02:18 437.470
UNISAT 6 18 Nov 08:03:40 08:07:56 39° 70° (ENE) 08:12:09 437.425
STRAND 1 18 Nov 08:06:08 08:06:31 10° 273° (W) 08:06:54 437.568
CUBEBUG 2 18 Nov 08:07:27 08:10:57 26° 293° (WNW) 08:14:22 437.445
TIGRISAT 18 Nov 08:08:58 08:13:16 41° 71° (ENE) 08:17:30 435.000
DELFI C3 18 Nov 08:11:59 08:13:56 13° 90° (E) 08:15:53 145.870
XW-2A 18 Nov 08:15:55 08:18:45 26° 290° (WNW) 08:21:34 145.665 - 145.685
SEEDS 18 Nov 08:25:44 08:28:28 17° 296° (WNW) 08:31:11 437.485
AO-73 18 Nov 08:26:26 08:30:29 57° 286° (WNW) 08:34:33 145.935
Max Valier Satellite 18 Nov 08:27:30 08:29:07 12° 91° (E) 08:30:43 145.860
PRISM 18 Nov 08:32:21 08:35:52 28° 67° (ENE) 08:39:24 437.425
FO-29 18 Nov 08:33:44 08:39:31 34° 268° (W) 08:46:00 435.910
EO-88 18 Nov 08:34:59 08:35:35 10° 90° (E) 08:36:12 145.990 - 145.960
AAUSAT CUBESAT 2 18 Nov 08:42:45 08:46:03 23° 293° (WNW) 08:49:19 437.432
Oscar 11 18 Nov 08:46:49 08:51:01 52° 287° (WNW) 08:55:13 .
PCSat 18 Nov 08:50:57 08:56:06 41° 51° (NE) 09:01:11 145.827
HO-68 18 Nov 08:51:55 08:57:10 23° 306° (NW) 09:02:26 435.675
AIST 2D 18 Nov 09:04:06 09:06:07 15° 66° (ENE) 09:08:09 435.315
ZACube-1 18 Nov 09:10:16 09:13:09 19° 295° (WNW) 09:16:03 437.345
UWE-3 18 Nov 09:14:16 09:14:44 10° 300° (WNW) 09:15:12 435.000/436.395/437.385
QB50P2 18 Nov 09:15:03 09:16:09 11° 60° (ENE) 09:17:15 145.880/145.840
UNISAT 6 18 Nov 09:41:09 09:44:45 22° 266° (W) 09:48:18 437.425
DELFI C3 18 Nov 09:45:05 09:48:59 52° 287° (WNW) 09:52:51 145.870
TIGRISAT 18 Nov 09:46:33 09:50:05 21° 267° (W) 09:53:34 435.000
Max Valier Satellite 18 Nov 09:59:40 10:03:11 45° 287° (WNW) 10:06:41 145.860
EO-88 18 Nov 10:05:58 10:09:33 55° 286° (WNW) 10:13:07 145.990 - 145.960
DUCHIFAT 1 18 Nov 10:07:30 10:11:01 26° 67° (ENE) 10:14:32 145.980
PRISM 18 Nov 10:07:35 10:11:04 26° 264° (W) 10:14:35 437.425
EO-79 18 Nov 10:10:06 10:13:58 35° 70° (ENE) 10:17:50 145.935-145.965
NANOSAT C BR1 18 Nov 10:15:40 10:19:32 36° 70° (ENE) 10:23:24 145.865
POLYITAN 1 18 Nov 10:24:10 10:28:16 49° 72° (ENE) 10:32:23 437.675
PCSat 18 Nov 10:34:35 10:39:22 33° 250° (WSW) 10:44:08 145.827
AIST 2D 18 Nov 10:35:48 10:38:59 35° 262° (W) 10:42:13 435.315
BEESAT 3 18 Nov 10:40:12 10:43:22 22° 43° (NE) 10:46:29 437.485
LO-87 18 Nov 10:41:21 10:44:47 45° 99° (E) 10:48:11 145.935 - 145.965
QB50P2 18 Nov 10:47:01 10:51:17 83° 257° (WSW) 10:55:33 145.880/145.840
ESTCUBE 1 18 Nov 11:03:34 11:08:03 58° 101° (E) 11:12:30 437.505/2401.250
BUGSAT 1 18 Nov 11:13:05 11:16:52 33° 69° (ENE) 11:20:38 437.445
FALCONSAT 3 18 Nov 11:14:39 11:16:55 16° 165° (SSE) 11:19:12 435.103
Gurwin Techsat 1B 18 Nov 11:24:23 11:28:24 22° 62° (ENE) 11:32:25 435.225
Oscar 19 18 Nov 11:25:16 11:29:38 29° 65° (ENE) 11:34:01 437.125/150
SPROUT 18 Nov 11:26:27 11:29:58 25° 95° (E) 11:33:27 437.525
VELOX 1 18 Nov 11:39:28 11:42:59 22° 94° (E) 11:46:29 145.980
DUCHIFAT 1 18 Nov 11:42:52 11:46:34 29° 264° (W) 11:50:17 145.980
BEESAT 2 18 Nov 11:43:17 11:46:49 28° 45° (NE) 11:50:18 435.950
EO-79 18 Nov 11:46:30 11:49:48 22° 266° (W) 11:53:06 145.935-145.965
NANOSAT C BR1 18 Nov 11:52:04 11:55:19 21° 266° (W) 11:58:35 145.865
POLYITAN 1 18 Nov 12:01:45 12:04:19 16° 269° (W) 12:06:53 437.675
LO-87 18 Nov 12:16:10 12:17:48 13° 296° (WNW) 12:19:24 145.935 - 145.965
BEESAT 3 18 Nov 12:17:20 12:21:05 42° 242° (WSW) 12:24:45 437.485
AO-85 18 Nov 12:22:00 12:26:13 34° 47° (NE) 12:30:43 145.980
AO-7 18 Nov 12:29:35 12:36:09 27° 52° (NE) 12:42:45 .
DX 1 18 Nov 12:35:38 12:38:55 20° 94° (E) 12:42:09 434.975-435.025
ESTCUBE 1 18 Nov 12:41:33 12:44:23 17° 298° (WNW) 12:47:12 437.505/2401.250
BUGSAT 1 18 Nov 12:48:56 12:52:16 22° 266° (W) 12:55:36 437.445
M-CUBED/EXP-1 PRIME 18 Nov 12:50:14 12:53:38 51° 67° (ENE) 12:57:18 437.505
FALCONSAT 3 18 Nov 12:52:30 12:55:22 21° 181° (S) 12:58:12 435.103
SPROUT 18 Nov 13:02:06 13:05:52 31° 291° (WNW) 13:09:35 437.525
Gurwin Techsat 1B 18 Nov 13:02:45 13:07:57 55° 260° (W) 13:13:11 435.225
Oscar 19 18 Nov 13:04:06 13:08:49 37° 263° (W) 13:13:34 437.125/150
ITAMSAT 1 18 Nov 13:11:28 13:15:06 19° 60° (ENE) 13:18:45 435.822/435.867
O/OREOS (USA 219) 18 Nov 13:15:14 13:19:34 43° 107° (ESE) 13:23:56 437.305
VELOX 1 18 Nov 13:15:24 13:19:31 37° 291° (WNW) 13:23:37 145.980
BEESAT 2 18 Nov 13:20:56 13:24:33 32° 244° (WSW) 13:28:06 435.950
UKube-1 18 Nov 13:24:05 13:28:11 40° 99° (E) 13:32:15 .
50 SAT 18 Nov 13:25:38 13:28:53 88° 286° (WNW) 13:32:06 437.505
MOZHAYETS 4 18 Nov 13:55:22 13:58:24 17° 91° (E) 14:01:26
AO-85 18 Nov 14:02:21 14:06:40 36° 243° (WSW) 14:11:15 145.980
DX 1 18 Nov 14:11:07 14:15:14 40° 290° (WNW) 14:19:19 434.975-435.025
AO-7 18 Nov 14:19:49 14:28:07 79° 252° (WSW) 14:36:28 .
M-CUBED/EXP-1 PRIME 18 Nov 14:27:20 14:28:28 11° 266° (W) 14:29:37 437.505
FALCONSAT 3 18 Nov 14:31:42 14:33:46 15° 196° (SSW) 14:35:53 435.103
BEESAT 18 Nov 14:41:17 14:45:44 38° 98° (E) 14:50:08 436.000
ITUPSAT 1 18 Nov 14:48:43 14:53:17 43° 99° (E) 14:57:47 437.325
ITAMSAT 1 18 Nov 14:48:53 14:54:04 63° 258° (WSW) 14:59:17 435.822/435.867
O/OREOS (USA 219) 18 Nov 14:55:29 14:59:10 23° 306° (NW) 15:02:52 437.305
UKube-1 18 Nov 15:00:42 15:03:55 21° 296° (WNW) 15:07:08 .
DOVE 4 18 Nov 15:06:21 15:10:49 34° 67° (ENE) 15:15:28 437.250
YUBILEINY 18 Nov 15:06:37 15:13:54 27° 64° (ENE) 15:21:07 435.215
NO-84 18 Nov 15:24:59 15:28:26 36° 132° (SE) 15:32:10 435.350 FM
MOZHAYETS 4 18 Nov 15:31:25 15:35:50 50° 288° (WNW) 15:40:14
CUBESAT XI-V 18 Nov 15:34:23 15:38:51 42° 98° (E) 15:43:19 437.345
HO-68 18 Nov 15:49:11 15:53:15 16° 49° (NE) 15:57:17 435.675
KAITUO 1B 18 Nov 15:51:02 15:51:59 11° 62° (ENE) 15:52:55 145.475/437.950
XW-2D 18 Nov 15:56:02 15:58:35 18° 66° (ENE) 16:01:09 145.860 - 145.880
CUTE-I 18 Nov 15:59:34 16:03:50 25° 63° (ENE) 16:08:08 437.470
KKS-1 18 Nov 16:09:43 16:13:15 22° 94° (E) 16:16:44 437.445
XW-2B 18 Nov 16:10:10 16:13:12 24° 69° (ENE) 16:16:16 145.730 - 145.750
AO-7 18 Nov 16:17:24 16:22:08 16° 272° (W) 16:26:55 .
BEESAT 18 Nov 16:19:24 16:23:18 26° 295° (WNW) 16:27:12 436.000
ITUPSAT 1 18 Nov 16:27:07 16:30:49 23° 296° (WNW) 16:34:30 437.325
LilacSat-2 18 Nov 16:32:57 16:36:34 48° 74° (ENE) 16:40:13 437.200
XW-2C 18 Nov 16:34:54 16:38:30 47° 73° (ENE) 16:42:07 145.795 - 145.815
NUDT-PHONESAT 18 Nov 16:38:25 16:41:44 35° 71° (ENE) 16:45:05 437.300
STARS 18 Nov 16:43:00 16:46:17 20° 93° (E) 16:49:31 437.465
DOVE 4 18 Nov 16:44:01 16:48:26 32° 266° (W) 16:53:05 437.250
XW-2F 18 Nov 16:48:27 16:52:07 65° 74° (ENE) 16:55:49 145.980 - 146.000
NO-84 18 Nov 17:02:06 17:05:47 39° 332° (NNW) 17:09:42 435.350 FM
YUBILEINY 18 Nov 17:02:44 17:11:33 73° 266° (W) 17:20:19 435.215
CUTE 1.7 + AOD 2 18 Nov 17:05:45 17:09:17 27° 68° (ENE) 17:12:50 437.475
CUBESAT XI-V 18 Nov 17:12:20 17:15:57 23° 295° (WNW) 17:19:35 437.345
KAITUO 1B 18 Nov 17:21:48 17:25:26 61° 259° (W) 17:29:06 145.475/437.950
XW-2D 18 Nov 17:29:05 17:32:30 34° 263° (W) 17:35:57 145.860 - 145.880
CUBEBUG 2 18 Nov 17:29:42 17:33:46 31° 69° (ENE) 17:37:44 437.445
HO-68 18 Nov 17:32:36 17:39:44 71° 70° (ENE) 17:46:55 435.675
RS-15 18 Nov 17:36:41 17:47:20 37° 105° (ESE) 17:57:56 29.354- 29.394
CUTE-I 18 Nov 17:38:23 17:43:34 49° 261° (W) 17:48:48 437.470
SEEDS 18 Nov 17:41:50 17:45:43 39° 71° (ENE) 17:49:37 437.485
XW-2B 18 Nov 17:44:13 17:47:18 24° 265° (W) 17:50:24 145.730 - 145.750
KKS-1 18 Nov 17:45:46 17:49:54 37° 291° (WNW) 17:54:00 437.445
AO-73 18 Nov 17:49:09 17:51:16 14° 62° (ENE) 17:53:23 145.935
AAUSAT CUBESAT 2 18 Nov 17:58:25 18:01:53 27° 68° (ENE) 18:05:22 437.432
Oscar 11 18 Nov 18:08:41 18:11:07 15° 62° (ENE) 18:13:33 .
LilacSat-2 18 Nov 18:09:32 18:11:07 12° 270° (W) 18:12:43 437.200
XW-2C 18 Nov 18:11:19 18:12:57 12° 270° (W) 18:14:34 145.795 - 145.815
NUDT-PHONESAT 18 Nov 18:13:25 18:15:42 16° 268° (W) 18:18:01 437.300
STARS 18 Nov 18:18:38 18:22:46 40° 291° (WNW) 18:26:52 437.465
ZACube-1 18 Nov 18:30:05 18:34:08 39° 71° (ENE) 18:38:06 437.345
STRAND 1 18 Nov 18:30:44 18:35:13 30° 95° (E) 18:39:40 437.568
UWE-3 18 Nov 18:32:27 18:36:56 78° 76° (ENE) 18:41:20 435.000/436.395/437.385
NO-84 18 Nov 18:41:04 18:44:03 19° 353° (N) 18:47:08 435.350 FM
CUTE 1.7 + AOD 2 18 Nov 18:41:25 18:45:02 28° 265° (W) 18:48:41 437.475
XW-2A 18 Nov 18:47:26 18:50:44 65° 259° (W) 18:54:04 145.665 - 145.685
DELFI C3 18 Nov 19:00:35 19:00:51 10° 60° (ENE) 19:01:07 145.870
YUBILEINY 18 Nov 19:02:27 19:06:40 14° 287° (WNW) 19:10:53 435.215
CUBEBUG 2 18 Nov 19:06:21 19:10:20 28° 265° (W) 19:14:15 437.445
SEEDS 18 Nov 19:18:37 19:21:33 19° 268° (W) 19:24:31 437.485
HO-68 18 Nov 19:22:32 19:28:03 23° 268° (W) 19:33:37 435.675
AO-73 18 Nov 19:22:42 19:27:01 64° 259° (W) 19:31:15 145.935
AAUSAT CUBESAT 2 18 Nov 19:33:45 19:37:15 27° 265° (W) 19:40:48 437.432
FO-29 18 Nov 19:40:18 19:47:43 42° 95° (E) 19:54:47 435.910
Oscar 11 18 Nov 19:42:33 19:46:47 58° 259° (W) 19:51:02 .
RS-15 18 Nov 19:46:35 19:58:57 75° 308° (NW) 20:11:13 29.354- 29.394
ZACube-1 18 Nov 20:07:18 20:10:32 20° 267° (W) 20:13:44 437.345
STRAND 1 18 Nov 20:09:46 20:14:26 36° 293° (WNW) 20:19:02 437.568
UWE-3 18 Nov 20:12:56 20:13:52 11° 272° (W) 20:14:49 435.000/436.395/437.385
NO-84 18 Nov 20:19:15 20:22:35 22° 14° (NNE) 20:25:58 435.350 FM
DELFI C3 18 Nov 20:31:00 20:34:57 79° 256° (WSW) 20:38:57 145.870
Max Valier Satellite 18 Nov 20:39:09 20:42:48 89° 251° (WSW) 20:46:29 145.860
EO-88 18 Nov 20:44:20 20:47:55 74° 77° (ENE) 20:51:34 145.990 - 145.960
ISS 18 Nov 20:45:23 20:47:33 17° 134° (SE) 20:49:43 437.550
LO-87 18 Nov 21:18:44 21:21:40 24° 69° (ENE) 21:24:36 145.935 - 145.965
SO-50 18 Nov 21:21:20 21:25:00 25° 114° (ESE) 21:28:41 436.795
FO-29 18 Nov 21:25:17 21:32:43 47° 294° (WNW) 21:39:53 435.910
UNISAT 6 18 Nov 21:29:58 21:34:16 69° 101° (E) 21:38:30 437.425
TIGRISAT 18 Nov 21:35:08 21:39:26 72° 103° (ESE) 21:43:39 435.000
nSIGHT-1 18 Nov 21:45:32 21:48:43 72° 147° (SSE) 21:51:56 .
O/OREOS (USA 219) 18 Nov 21:45:33 21:48:09 15° 49° (NE) 21:50:42 437.305
PRISM 18 Nov 21:46:31 21:50:22 35° 98° (E) 21:54:11 437.425
NO-84 18 Nov 21:56:25 22:00:39 59° 34° (NE) 22:04:51 435.350 FM
AIST 2D 18 Nov 21:59:47 22:01:45 14° 92° (E) 22:03:42 435.315
RS-15 18 Nov 22:03:07 22:13:55 33° 337° (NNW) 22:24:31 29.354- 29.394
ESTCUBE 1 18 Nov 22:04:11 22:08:35 63° 74° (ENE) 22:13:02 437.505/2401.250
ISS 18 Nov 22:20:26 22:23:42 71° 332° (NNW) 22:26:57 437.550
SPROUT 18 Nov 22:21:05 22:24:30 24° 66° (ENE) 22:27:56 437.525
QB50P2 18 Nov 22:31:42 22:33:57 14° 91° (E) 22:36:11 145.880/145.840
VELOX 1 18 Nov 22:37:59 22:41:34 25° 66° (ENE) 22:45:12 145.980
LO-87 18 Nov 22:52:03 22:54:59 23° 265° (W) 22:57:57 145.935 - 145.965
SO-50 18 Nov 23:01:01 23:05:15 41° 312° (NW) 23:09:33 436.795
UNISAT 6 18 Nov 23:08:31 23:10:24 13° 299° (WNW) 23:12:17 437.425
FO-29 18 Nov 23:13:38 23:15:49 11° 315° (NW) 23:18:01 435.910
TIGRISAT 18 Nov 23:13:47 23:15:31 12° 300° (WNW) 23:17:15 435.000
PRISM 18 Nov 23:22:12 23:25:25 22° 295° (WNW) 23:28:36 437.425
nSIGHT-1 18 Nov 23:22:22 23:25:12 27° 345° (NNW) 23:28:01 .
O/OREOS (USA 219) 18 Nov 23:23:34 23:28:08 76° 249° (WSW) 23:32:39 437.305
DUCHIFAT 1 18 Nov 23:24:37 23:28:30 36° 98° (E) 23:32:19 145.980
EO-79 18 Nov 23:28:17 23:32:24 52° 100° (E) 23:36:28 145.935-145.965
AIST 2D 18 Nov 23:31:48 23:35:04 36° 288° (WNW) 23:38:19 435.315
DX 1 18 Nov 23:32:31 23:35:53 22° 65° (ENE) 23:39:18 434.975-435.025
NANOSAT C BR1 18 Nov 23:33:25 23:37:31 52° 100° (E) 23:41:36 145.865
NO-84 18 Nov 23:34:16 23:37:46 25° 232° (SW) 23:41:12 435.350 FM
PCSat 18 Nov 23:34:52 23:39:15 26° 108° (ESE) 23:43:39 145.827
POLYITAN 1 18 Nov 23:42:45 23:46:58 76° 102° (ESE) 23:51:08 437.675
ESTCUBE 1 18 Nov 23:43:34 23:45:48 14° 270° (W) 23:48:03 437.505/2401.250
50 SAT 18 Nov 23:54:01 23:56:56 32° 71° (ENE) 23:59:53 437.505
SPROUT 18 Nov 23:56:20 00:00:14 33° 263° (W) 00:04:09 437.525
ISS 18 Nov 23:57:50 00:00:34 24° 350° (N) 00:03:19 437.550
QB50P2 19 Nov 00:05:57 00:10:03 53° 288° (WNW) 00:14:08 145.880/145.840
VELOX 1 19 Nov 00:13:48 00:17:50 35° 263° (W) 00:21:56 145.980
UKube-1 19 Nov 00:19:36 00:23:39 42° 70° (ENE) 00:27:45 .
BUGSAT 1 19 Nov 00:28:02 00:31:56 43° 99° (E) 00:35:46 437.445
